SCP
0 0 0 0 0 0 0 0 -0 -2 -2 -1 -0 -0 0 0 0 0 0 0 -0 -0 -0 -0 -0 -0 0 -0 -0 -0 -0 -0 -0
0 0 0 0 0 -0 -0 0 0 -0 -1 -1 -0 0 0 0 0 0 0 -0 -0 -0 -0 0 0 0 0 0 -0 -0 -0 -0 0
0 0 -0 0 0 0 -0 -0 0 0 -0 -1 -0 0 0 0 0 -0 -0 -0 0 0 0 0 0 0 0 0 -0 -0 0 0 -0
0 0 0 0 0 0 0 -0 0 0 -0 -0 -0 0 0 0 0 -0 -0 -0 0 -0 0 0 0 0 0 -0 -0 0 -0 -0 0
0 0 0 0 0 0 0 1 0 0 1 0 0 0 1 0 0 0 -0 -0 0 0 0 -0 0 0 0 -0 0 0 0 0 0
0 1 1 1 0 0 1 0 1 -0 0 1 0 -0 0 0 0 0 0 0 0 0 0 -0 -0 -0 -0 0 -0 -0 0 0 0
0 0 1 1 1 1 1 1 1 1 -0 -0 0 0 0 1 1 0 0 0 0 0 0 0 0 0 0 0 0 0 0 0 0
1 0 0 1 1 1 2 2 3 2 2 -0 -0 0 1 1 1 1 0 1 1 0 0 0 0 0 0 0 1 0 0 1 0
1 0 0 1 1 1 1 2 2 2 2 1 1 1 1 1 0 1 1 1 1 1 1 0 0 0 0 0 0 0 0 1 0
1 1 1 1 1 1 1 1 2 2 3 1 1 1 1 1 1 1 1 1 1 1 1 1 0 0 0 0 0 0 0 0 1
1 0 0 1 1 1 1 1 1 2 2 1 1 0 0 0 0 1 1 1 1 1 1 1 1 1 1 1 0 0 0 0 1
1 0 0 0 0 1 1 2 2 3 2 4 1 1 0 -0 0 0 1 1 1 1 1 1 1 1 1 1 1 0 0 0 0
0 0 0 0 0 0 1 2 2 4 4 5 1 1 1 0 -0 -0 0 -0 0 1 1 1 1 1 1 1 1 0 0 0 0
0 0 0 0 0 0 1 1 3 4 3 2 2 2 1 1 0 -1 -0 0 1 1 1 1 1 1 1 1 1 0 0 0 0
0 0 0 0 0 0 1 0 1 3 2 2 2 2 2 1 0 0 0 0 0 0 1 1 1 2 1 1 1 0 0 0 0
0 0 0 0 0 1 1 1 1 2 4 2 1 2 2 2 1 1 0 0 0 0 0 1 1 1 1 0 1 0 0 0 0
0 0 0 0 1 0 1 1 1 2 1 1 2 2 1 1 1 1 1 1 1 1 1 1 1 0 0 0 0 0 0 0 0
0 0 0 0 1 1 1 1 1 1 2 1 2 2 2 2 2 1 1 1 1 1 0 0 1 1 0 0 0 0 0 0 0
0 0 0 0 1 1 1 1 1 0 0 1 2 1 2 2 2 2 2 1 0 0 0 0 0 0 0 0 0 0 0 0 0
0 0 0 0 1 1 1 2 1 -0 0 0 0 0 0 0 1 1 2 2 1 0 0 0 0 0 0 0 0 0 0 0 0
Wind_Speed_500mb
15 9 22 27 35 38 53 49 60 51 52 45 41 39 29 27 26 24 29 45 49 46 42 43 40 39 29 27 33 31 27 24 17
17 8 19 23 29 35 47 44 53 50 52 47 40 39 34 31 26 29 34 39 48 50 46 40 35 26 31 32 34 29 26 22 19
25 2 5 24 29 34 38 40 43 44 51 49 38 38 34 31 27 27 36 44 54 43 31 35 40 31 35 35 33 30 26 22 13
30 28 20 9 19 33 34 35 42 43 49 40 42 42 38 34 28 29 39 54 57 41 31 44 38 27 33 36 32 28 26 27 17
30 33 36 21 15 29 36 35 40 50 52 48 49 47 47 40 38 34 34 47 61 42 29 40 51 38 39 36 29 27 23 25 19
28 28 32 34 22 19 35 39 40 49 59 61 49 48 48 41 41 42 38 40 55 51 41 33 35 43 42 37 34 29 27 29 26
19 22 30 32 30 30 18 30 43 44 54 62 47 48 52 45 43 47 45 37 36 43 48 48 46 44 44 41 40 34 30 24 24
11 18 23 27 29 33 22 20 29 45 45 48 47 54 54 51 49 45 48 46 46 44 48 48 44 47 46 42 40 36 27 29 33
10 15 20 24 25 27 28 18 34 32 46 48 55 54 53 55 53 50 47 49 50 53 47 41 37 41 43 40 39 28 34 33 34
8 11 16 22 25 28 25 24 22 38 44 53 49 63 64 64 62 60 55 58 57 52 52 43 41 38 37 39 38 37 39 39 39
10 14 20 24 26 30 29 28 33 21 48 52 59 55 58 61 64 63 60 56 60 57 53 52 47 45 39 36 38 37 38 42 42
26 22 24 26 30 35 37 35 38 38 40 55 56 58 64 63 65 64 64 59 60 60 56 54 52 48 46 43 37 39 33 35 33
31 29 27 31 36 36 37 37 33 24 24 50 55 62 65 68 69 69 69 67 60 60 62 56 50 46 43 41 40 36 38 34 35
35 37 35 35 38 38 38 40 38 28 23 45 48 53 64 67 71 75 69 67 59 60 61 57 56 48 43 45 43 30 28 28 28
42 43 43 38 38 41 40 39 35 41 25 34 49 54 63 69 71 78 73 71 66 63 56 56 53 51 47 46 34 35 35 35 31
55 48 51 47 39 41 42 39 39 46 35 32 49 53 64 71 73 80 75 76 74 66 60 54 56 52 46 36 28 23 18 29 32
52 50 51 47 44 41 44 40 38 35 48 43 40 54 59 62 69 71 74 67 71 75 70 68 57 49 42 37 33 33 29 19 22
59 51 57 52 52 38 45 44 38 40 43 50 49 51 59 65 69 70 67 73 69 67 73 76 63 68 59 49 39 34 29 16 11
69 61 60 52 52 38 45 47 41 48 49 40 43 52 62 71 73 71 71 68 64 60 56 50 48 52 55 44 38 27 32 25 21
70 71 64 54 51 42 45 46 41 50 40 34 39 50 53 50 63 66 70 62 67 68 62 49 52 44 44 41 39 36 34 38 38
Wind_Direction_500mb
101 155 148 174 185 183 177 184 185 190 201 209 214 216 222 224 233 206 196 197 190 191 207 198 216 206 198 181 173 171 173 181 186
127 163 160 175 180 187 182 187 189 189 202 208 220 207 221 218 223 198 188 202 197 188 207 201 212 212 206 187 181 178 171 161 190
13 63 221 167 183 185 191 186 191 189 207 215 219 198 220 213 210 203 184 192 189 191 205 201 210 211 206 193 190 186 178 175 203
25 12 357 190 186 177 185 185 197 196 204 210 200 194 208 200 206 201 195 194 188 186 196 201 206 208 207 198 203 203 199 188 202
29 7 6 338 189 178 179 191 200 202 202 200 200 198 206 200 196 200 208 198 191 187 188 201 213 211 211 209 208 218 212 211 215
18 9 16 3 349 186 183 189 199 202 206 208 214 201 211 205 198 200 208 205 197 195 200 197 190 199 208 210 213 224 238 239 228
11 17 11 9 355 356 194 198 202 204 208 215 215 201 208 204 208 200 200 214 203 202 207 212 208 212 218 213 213 218 226 240 240
29 24 9 8 356 344 354 212 204 206 207 212 207 202 206 209 213 212 200 207 207 208 216 218 213 211 213 218 221 220 224 239 243
25 23 4 355 352 344 335 316 221 217 218 217 212 206 205 210 214 214 210 202 213 211 219 225 218 216 220 222 219 229 234 249 247
48 19 355 347 343 333 336 306 278 224 219 221 220 218 215 212 217 213 214 207 215 215 217 219 220 218 222 228 229 227 237 241 250
12 1 352 343 336 330 320 312 284 292 219 217 216 218 215 218 219 218 216 213 213 217 215 221 220 222 225 228 235 235 240 249 251
352 342 332 326 322 324 323 316 315 275 229 215 211 216 221 216 214 219 217 216 216 220 218 218 225 226 229 231 233 236 238 252 247
331 323 319 321 318 315 320 318 306 302 232 210 216 219 218 216 216 221 221 220 217 218 219 217 220 225 229 234 236 239 242 243 243
310 312 312 310 311 311 314 318 318 301 269 235 227 226 219 219 221 222 221 218 223 217 216 216 215 215 220 228 228 225 216 225 236
298 298 300 299 299 303 308 312 314 297 259 266 237 227 222 223 221 221 220 218 219 215 212 206 216 212 216 218 229 239 241 234 238
288 285 287 286 287 296 297 307 303 305 291 263 248 236 226 220 220 222 219 217 215 212 210 211 210 209 212 211 225 222 234 236 234
288 290 284 282 285 285 291 299 299 300 299 263 254 242 234 230 224 220 217 215 215 214 213 208 207 210 204 202 213 223 220 200 235
299 283 281 275 281 273 287 289 295 287 283 282 251 238 234 231 225 222 218 214 214 223 218 216 219 210 210 209 212 221 218 203 218
287 286 273 274 277 269 282 283 282 283 291 292 246 243 231 228 223 218 212 210 210 211 206 216 219 220 222 214 212 213 194 203 221
281 281 269 267 270 269 274 272 273 282 293 302 266 247 224 222 227 218 210 207 212 205 206 212 215 202 206 200 204 208 212 211 217
Wind_Speed_850mb
15 9 22 27 35 38 53 49 60 51 52 45 41 39 29 27 26 24 29 45 49 46 42 43 40 39 29 27 33 31 27 24 17
17 8 19 23 29 35 47 44 53 50 52 47 40 39 34 31 26 29 34 39 48 50 46 40 35 26 31 32 34 29 26 22 19
25 2 5 24 29 34 38 40 43 44 51 49 38 38 34 31 27 27 36 44 54 43 31 35 40 31 35 35 33 30 26 22 13
30 28 20 9 19 33 34 35 42 43 49 40 42 42 38 34 28 29 39 54 57 41 31 44 38 27 33 36 32 28 26 27 17
30 33 36 21 15 29 36 35 40 50 52 48 49 47 47 40 38 34 34 47 61 42 29 40 51 38 39 36 29 27 23 25 19
28 28 32 34 22 19 35 39 40 49 59 61 49 48 48 41 41 42 38 40 55 51 41 33 35 43 42 37 34 29 27 29 26
19 22 30 32 30 30 18 30 43 44 54 62 47 48 52 45 43 47 45 37 36 43 48 48 46 44 44 41 40 34 30 24 24
11 18 23 27 29 33 22 20 29 45 45 48 47 54 54 51 49 45 48 46 46 44 48 48 44 47 46 42 40 36 27 29 33
10 15 20 24 25 27 28 18 34 32 46 48 55 54 53 55 53 50 47 49 50 53 47 41 37 41 43 40 39 28 34 33 34
8 11 16 22 25 28 25 24 22 38 44 53 49 63 64 64 62 60 55 58 57 52 52 43 41 38 37 39 38 37 39 39 39
10 14 20 24 26 30 29 28 33 21 48 52 59 55 58 61 64 63 60 56 60 57 53 52 47 45 39 36 38 37 38 42 42
26 22 24 26 30 35 37 35 38 38 40 55 56 58 64 63 65 64 64 59 60 60 56 54 52 48 46 43 37 39 33 35 33
31 29 27 31 36 36 37 37 33 24 24 50 55 62 65 68 69 69 69 67 60 60 62 56 50 46 43 41 40 36 38 34 35
35 37 35 35 38 38 38 40 38 28 23 45 48 53 64 67 71 75 69 67 59 60 61 57 56 48 43 45 43 30 28 28 28
42 43 43 38 38 41 40 39 35 41 25 34 49 54 63 69 71 78 73 71 66 63 56 56 53 51 47 46 34 35 35 35 31
55 48 51 47 39 41 42 39 39 46 35 32 49 53 64 71 73 80 75 76 74 66 60 54 56 52 46 36 28 23 18 29 32
52 50 51 47 44 41 44 40 38 35 48 43 40 54 59 62 69 71 74 67 71 75 70 68 57 49 42 37 33 33 29 19 22
59 51 57 52 52 38 45 44 38 40 43 50 49 51 59 65 69 70 67 73 69 67 73 76 63 68 59 49 39 34 29 16 11
69 61 60 52 52 38 45 47 41 48 49 40 43 52 62 71 73 71 71 68 64 60 56 50 48 52 55 44 38 27 32 25 21
70 71 64 54 51 42 45 46 41 50 40 34 39 50 53 50 63 66 70 62 67 68 62 49 52 44 44 41 39 36 34 38 38
Wind_Direction_850mb
101 155 148 174 185 183 177 184 185 190 201 209 214 216 222 224 233 206 196 197 190 191 207 198 216 206 198 181 173 171 173 181 186
127 163 160 175 180 187 182 187 189 189 202 208 220 207 221 218 223 198 188 202 197 188 207 201 212 212 206 187 181 178 171 161 190
13 63 221 167 183 185 191 186 191 189 207 215 219 198 220 213 210 203 184 192 189 191 205 201 210 211 206 193 190 186 178 175 203
25 12 357 190 186 177 185 185 197 196 204 210 200 194 208 200 206 201 195 194 188 186 196 201 206 208 207 198 203 203 199 188 202
29 7 6 338 189 178 179 191 200 202 202 200 200 198 206 200 196 200 208 198 191 187 188 201 213 211 211 209 208 218 212 211 215
18 9 16 3 349 186 183 189 199 202 206 208 214 201 211 205 198 200 208 205 197 195 200 197 190 199 208 210 213 224 238 239 228
11 17 11 9 355 356 194 198 202 204 208 215 215 201 208 204 208 200 200 214 203 202 207 212 208 212 218 213 213 218 226 240 240
29 24 9 8 356 344 354 212 204 206 207 212 207 202 206 209 213 212 200 207 207 208 216 218 213 211 213 218 221 220 224 239 243
25 23 4 355 352 344 335 316 221 217 218 217 212 206 205 210 214 214 210 202 213 211 219 225 218 216 220 222 219 229 234 249 247
48 19 355 347 343 333 336 306 278 224 219 221 220 218 215 212 217 213 214 207 215 215 217 219 220 218 222 228 229 227 237 241 250
12 1 352 343 336 330 320 312 284 292 219 217 216 218 215 218 219 218 216 213 213 217 215 221 220 222 225 228 235 235 240 249 251
352 342 332 326 322 324 323 316 315 275 229 215 211 216 221 216 214 219 217 216 216 220 218 218 225 226 229 231 233 236 238 252 247
331 323 319 321 318 315 320 318 306 302 232 210 216 219 218 216 216 221 221 220 217 218 219 217 220 225 229 234 236 239 242 243 243
310 312 312 310 311 311 314 318 318 301 269 235 227 226 219 219 221 222 221 218 223 217 216 216 215 215 220 228 228 225 216 225 236
298 298 300 299 299 303 308 312 314 297 259 266 237 227 222 223 221 221 220 218 219 215 212 206 216 212 216 218 229 239 241 234 238
288 285 287 286 287 296 297 307 303 305 291 263 248 236 226 220 220 222 219 217 215 212 210 211 210 209 212 211 225 222 234 236 234
288 290 284 282 285 285 291 299 299 300 299 263 254 242 234 230 224 220 217 215 215 214 213 208 207 210 204 202 213 223 220 200 235
299 283 281 275 281 273 287 289 295 287 283 282 251 238 234 231 225 222 218 214 214 223 218 216 219 210 210 209 212 221 218 203 218
287 286 273 274 277 269 282 283 282 283 291 292 246 243 231 228 223 218 212 210 210 211 206 216 219 220 222 214 212 213 194 203 221
281 281 269 267 270 269 274 272 273 282 293 302 266 247 224 222 227 218 210 207 212 205 206 212 215 202 206 200 204 208 212 211 217